Weather History for South Marsh 268, LA

Change the Weather History Date:

Saturday, April 5, 2014

  Actual Average Record
Temperature  
Mean Temperature 66 °F -  
Max Temperature 71 °F - - ()
Min Temperature 62 °F - - ()
Cooling Degree Days 2    
Growing Degree Days 16 (Base 50)    
Moisture  
Dew Point 59 °F    
Average Humidity 80    
Maximum Humidity 100    
Minimum Humidity 68    
Precipitation  
Precipitation 0.00 in - - ()
Sea Level Pressure  
Sea Level Pressure 29.95 in    
Wind  
Wind Speed 22 mph (ENE)    
Max Wind Speed 29 mph    
Max Gust Speed 28 mph    
Visibility 9 miles    
Events      
T = Trace of Precipitation, MM = Missing Value Source: NWS Daily Summary

Daily Weather History Graph

Daily Weather History Graph

Search for Another Location

Airport:

Trip Planner

Search our weather history database for the weather conditions in past years. The results will help you decide how hot, cold, wet, or windy it might be!

Date:

Astronomy

Apr. 05, 2014 Rise Set
Actual Time 6:52 AM CDT 7:28 PM CDT
Civil Twilight 6:28 AM CDT 7:52 PM CDT
Nautical Twilight 6:00 AM CDT 8:20 PM CDT
Astronomical Twilight 5:31 AM CDT 8:48 PM CDT
Moon 11:16 AM CDT (4/5) 12:22 AM CDT (4/5)
Length of Visible Light 13h 23m
Length of Day
12h 35m
Waxing Crescent, 34% of the Moon is Illuminated
Apr 5
Waxing Crescent
Apr 7
First Quarter
Apr 15
Full
Apr 22
Last Quarter
Apr 29
New

Hourly Weather History & Observations

Time (CDT) Temp. Dew Point Humidity Pressure Visibility Wind Dir Wind Speed Gust Speed Precip Events Conditions
12:15 AM 71.6 °F 64.4 °F 78% 29.97 in 10.0 mi NNE 17.3 mph - N/A   Overcast
12:35 AM 69.8 °F 62.6 °F 78% 29.96 in 10.0 mi NNE 19.6 mph - N/A   Overcast
12:55 AM 69.8 °F 62.6 °F 78% 29.97 in 10.0 mi NNE 20.7 mph - N/A   Overcast
1:15 AM 69.8 °F 62.6 °F 78% 29.96 in 10.0 mi NNE 20.7 mph - N/A   Overcast
1:35 AM 69.8 °F 60.8 °F 73% 29.96 in 10.0 mi NNE 23.0 mph - N/A   Overcast
1:55 AM 69.8 °F 60.8 °F 73% 29.95 in 10.0 mi NNE 24.2 mph - N/A   Overcast
2:15 AM 69.8 °F 60.8 °F 73% 29.95 in 10.0 mi NNE 21.9 mph - N/A   Overcast
2:35 AM 69.8 °F 60.8 °F 73% 29.95 in 10.0 mi NE 20.7 mph - N/A   Overcast
2:55 AM 69.8 °F 60.8 °F 73% 29.94 in 10.0 mi NNE 21.9 mph - N/A   Overcast
3:15 AM 69.8 °F 60.8 °F 73% 29.95 in 10.0 mi NNE 21.9 mph - N/A   Overcast
3:35 AM 69.8 °F 60.8 °F 73% 29.94 in 10.0 mi NE 21.9 mph - N/A   Overcast
3:55 AM 68.0 °F 59.0 °F 73% 29.94 in 10.0 mi NE 21.9 mph - N/A   Overcast
4:15 AM 68.0 °F 59.0 °F 73% 29.93 in 10.0 mi NE 21.9 mph - N/A   Overcast
4:35 AM 68.0 °F 59.0 °F 73% 29.94 in 10.0 mi NE 23.0 mph - N/A   Overcast
4:55 AM 68.0 °F 59.0 °F 73% 29.93 in 10.0 mi NE 20.7 mph - N/A   Overcast
5:15 AM 68.0 °F 59.0 °F 73% 29.94 in 10.0 mi NE 20.7 mph - N/A   Overcast
5:35 AM 68.0 °F 59.0 °F 73% 29.93 in 10.0 mi NE 20.7 mph - N/A   Overcast
5:55 AM 68.0 °F 59.0 °F 73% 29.94 in 10.0 mi NE 21.9 mph - N/A   Overcast
6:15 AM 68.0 °F 57.2 °F 68% 29.94 in 10.0 mi NE 21.9 mph - N/A   Overcast
6:35 AM 68.0 °F 59.0 °F 73% 29.94 in 10.0 mi NE 23.0 mph - N/A   Overcast
6:55 AM 68.0 °F 59.0 °F 73% 29.94 in 10.0 mi NE 24.2 mph - N/A   Overcast
7:15 AM 66.2 °F 57.2 °F 73% 29.95 in 10.0 mi NE 21.9 mph - N/A   Overcast
7:35 AM 66.2 °F 57.2 °F 73% 29.96 in 10.0 mi NE 23.0 mph - N/A   Overcast
7:55 AM 66.2 °F 57.2 °F 73% 29.98 in - NE 25.3 mph - N/A   Overcast
8:15 AM 66.2 °F 57.2 °F 73% 29.99 in 10.0 mi NE 25.3 mph - N/A   Overcast
8:35 AM 66.2 °F 57.2 °F 73% 29.98 in 9.0 mi ENE 24.2 mph - N/A   Overcast
8:55 AM 66.2 °F 57.2 °F 73% 29.99 in 10.0 mi NE 24.2 mph - N/A   Overcast
9:15 AM 66.2 °F 57.2 °F 73% 29.99 in 10.0 mi NE 23.0 mph - N/A   Overcast
9:35 AM 66.2 °F 57.2 °F 73% 30.00 in 10.0 mi NE 23.0 mph - N/A   Overcast
9:55 AM 66.2 °F 57.2 °F 73% 30.01 in 10.0 mi NE 20.7 mph - N/A   Overcast
10:15 AM 66.2 °F 55.4 °F 68% 30.01 in 10.0 mi NE 24.2 mph - N/A   Overcast
10:35 AM 66.2 °F 55.4 °F 68% 30.01 in 10.0 mi ENE 21.9 mph - N/A   Overcast
10:55 AM 66.2 °F 55.4 °F 68% 30.01 in 10.0 mi NE 21.9 mph - N/A   Overcast
11:15 AM 66.2 °F 55.4 °F 68% 30.01 in 10.0 mi ENE 24.2 mph - N/A   Overcast
11:35 AM 66.2 °F 55.4 °F 68% 30.01 in 10.0 mi ENE 24.2 mph - N/A   Overcast
11:55 AM 66.2 °F 55.4 °F 68% 30.00 in 10.0 mi ENE 21.9 mph - N/A   Overcast
12:15 PM 66.2 °F 57.2 °F 73% 29.99 in 10.0 mi ENE 24.2 mph - N/A   Overcast
12:35 PM 66.2 °F 57.2 °F 73% 29.99 in 10.0 mi East 26.5 mph - N/A   Overcast
12:55 PM 66.2 °F 57.2 °F 73% 29.99 in 9.0 mi East 26.5 mph - N/A   Overcast
1:15 PM 66.2 °F 57.2 °F 73% 29.99 in 9.0 mi East 24.2 mph - N/A   Overcast
1:35 PM 66.2 °F 57.2 °F 73% 29.98 in 9.0 mi ENE 25.3 mph - N/A   Overcast
1:55 PM 64.4 °F 59.0 °F 83% 29.97 in 7.0 mi East 27.6 mph - N/A   Overcast
2:15 PM 62.6 °F 59.0 °F 88% 29.95 in 1.5 mi East 28.8 mph - N/A   Haze
2:35 PM 62.6 °F 59.0 °F 88% 29.96 in 1.8 mi ENE 26.5 mph - N/A   Overcast
2:55 PM 62.6 °F 60.8 °F 94% 29.95 in 1.8 mi ENE 24.2 mph - N/A   Overcast
3:15 PM 62.6 °F 60.8 °F 94% 29.95 in 4.0 mi ENE 24.2 mph - N/A   Overcast
3:35 PM 62.6 °F 60.8 °F 94% 29.94 in 4.0 mi East 24.2 mph - N/A   Overcast
3:55 PM 64.4 °F 60.8 °F 88% 29.93 in 8.0 mi ENE 23.0 mph - N/A   Overcast
4:15 PM 62.6 °F 59.0 °F 88% 29.92 in 9.0 mi ENE 24.2 mph - N/A   Overcast
4:35 PM 62.6 °F 59.0 °F 88% 29.94 in 5.0 mi ENE 23.0 mph - N/A   Overcast
4:55 PM 62.6 °F 59.0 °F 88% 29.94 in 5.0 mi ENE 23.0 mph - N/A   Overcast
5:15 PM 62.6 °F 59.0 °F 88% 29.92 in 9.0 mi ENE 25.3 mph - N/A   Overcast
5:35 PM 62.6 °F 59.0 °F 88% 29.91 in 10.0 mi ENE 25.3 mph - N/A   Overcast
5:55 PM 62.6 °F 59.0 °F 88% 29.93 in 10.0 mi ENE 23.0 mph - N/A   Overcast
6:15 PM 62.6 °F 59.0 °F 88% 29.93 in 10.0 mi ENE 23.0 mph - N/A   Overcast
6:35 PM 64.4 °F 59.0 °F 83% 29.92 in 10.0 mi East 26.5 mph - N/A   Overcast
6:55 PM 64.4 °F 59.0 °F 83% 29.92 in 10.0 mi East 25.3 mph - N/A   Overcast
7:15 PM 62.6 °F 59.0 °F 88% 29.93 in 10.0 mi East 23.0 mph - N/A   Overcast
7:35 PM 62.6 °F 59.0 °F 88% 29.91 in 9.0 mi East 25.3 mph - N/A   Overcast
7:55 PM 62.6 °F 59.0 °F 88% 29.92 in 10.0 mi ENE 23.0 mph - N/A   Overcast
8:15 PM 62.6 °F 59.0 °F 88% 29.94 in 9.0 mi ENE 20.7 mph - N/A   Overcast
8:35 PM 62.6 °F 60.8 °F 94% 29.93 in 9.0 mi ENE 23.0 mph - N/A   Overcast
8:55 PM 62.6 °F 60.8 °F 94% 29.92 in 9.0 mi East 24.2 mph - N/A   Overcast
9:15 PM 64.4 °F 60.8 °F 88% 29.92 in 9.0 mi East 24.2 mph - N/A   Overcast
9:35 PM 64.4 °F 60.8 °F 88% 29.92 in 8.0 mi East 25.3 mph - N/A   Overcast
9:55 PM 64.4 °F 62.6 °F 94% 29.93 in 7.0 mi East 24.2 mph - N/A   Overcast
10:15 PM 64.4 °F 62.6 °F 94% 29.91 in 6.0 mi East 24.2 mph - N/A   Overcast
10:35 PM 64.4 °F 62.6 °F 94% 29.92 in 6.0 mi East 21.9 mph 27.6 mph N/A   Overcast
10:55 PM 66.2 °F 64.4 °F 94% 29.90 in 5.0 mi East 25.3 mph - N/A   Overcast
11:15 PM 66.2 °F 64.4 °F 94% 29.90 in 4.0 mi East 21.9 mph - N/A   Overcast
11:35 PM 66.2 °F 66.2 °F 100% 29.91 in 4.0 mi East 20.7 mph - N/A   Overcast
11:55 PM 68.0 °F 66.2 °F 94% 29.89 in 4.0 mi East 23.0 mph - N/A   Overcast